STARLINK-31164, 58733

Orbit data source: Space-Track

STARLINK-31164, 58733 is a payload satellite owned by SpaceX/Seattle (US) in LEO that was launched on Sun, 07 Jan 2024 UTC via an FALCON 9 launch vehicle from the Air Force Eastern Test Range (AFETR). Payload-class satellites include a variety of spacecraft equipped with specific instruments for various scientific and technological missions. These include communications satellites like Starlink; space stations such as the ISS; scientific satellites like the Hubble; Earth observation satellites from companies like Planet Labs, Umbra, and HawkEye 360; GPS; miniature CubeSats for education and research; and military/defense satellites.

Loading next visibility...
Identifier
58733, 2024-005F
Orbit
LEO
Country
Flag of USUS
Related business
Manufacturer
SpaceX/Seattle
Mission
Operational Commercial Communications
Bus & Motor
STARLINK V2M, Unknown motor
Mass
730 kg wet, ~700 kg dry
Launch date (UTC)
2024-01-07 (2 years ago)
Launch vehicle
FALCON 9
Launch site
Air Force Eastern Test Range (AFETR)
Object type
Payload
Rocket body
Debris
Shape & HBR
Box + 2 Pan, 17.7 m
Radar Cross Section
33.884 m², Large (>1 m²)

Expand to show TLE details & history
Last TLE update: 3 days ago

TLE from 3 days ago
0 STARLINK-31164
1 58733U 24005F   26170.53496809  .00001952  00000-0  80443-4 0  9997
2 58733  43.0036   4.2384 0001487 258.0102 102.0583 15.27585118136016
Epoch: 2026-06-19T12:50Z
TLE epoch observation values (Epoch: 2026-06-19T12:50:21.242Z)
Latitude
-0.00004°
Longitude
-96.11271°
Altitude
483.023 km
Speed
7.626 km/s
True Right ascension
00h 16m 57s
True Declination
0° 00' 00"
Sunlit
Object was in daylight at epoch
Visualization orbit readout
Latitude
Unknown
Longitude
Unknown
Altitude
Unknown
Speed
Unknown
Apparent Right ascension
Unknown
Apparent Declination
Unknown
Sunlit
N/A
Visualization observer readout
Local Sidereal Time
21:25:53
Azimuth
Unknown
Elevation
Unknown
Doppler factor
Unknown
Orbital elements
Apogee altitude
485.999 km
Perigee altitude
483.958 km
Semi-major axis
6,863.115 km
Eccentricity
0.00015
Inclination
43.0036°
RAAN
4.2384°
Arg. of periapsis
258.0102°
True anomaly
102.07496°
Mean anomaly
102.0583°
Eccentric anomaly
102.06663°
Mean motion
3.81734 °/min
Orbital period
94.31 mins
BSTAR
0.000080443
Loading maneuver chart data...
Computing Atmospheric mass density...
Loading historical data...
Loading historical data...
Loading historical data...
Loading historical data...
Loading historical data...
Loading historical data...
Loading historical data...

Documentation

Showing up to 5 results
|